| time (UTC) | temp F | wind direction | speed MPH | gust MPH | rain 1hr in | rain 24hr in | rain mn in | humidity % | barometer mb |
| 20260507174850 | 57 | 325 | 1.0 | 4.0 | 0.00 | 0.00 | 0.00 | 67 | 1020.7 |
| 20260507174356 | 57 | 15 | 0.0 | 2.0 | 0.00 | 0.00 | 0.00 | 70 | 1020.7 |
| 20260507173838 | 55 | 159 | 0.0 | 5.0 | 0.00 | 0.00 | 0.00 | 72 | 1020.8 |
| 20260507173345 | 55 | 27 | 0.0 | 2.0 | 0.00 | 0.00 | 0.00 | 72 | 1020.9 |
| 20260507172853 | 56 | 14 | 0.0 | 1.0 | 0.00 | 0.00 | 0.00 | 71 | 1020.9 |
| 20260507172352 | 56 | 14 | 0.0 | 1.0 | 0.00 | 0.00 | 0.00 | 73 | 1021.0 |
| 20260507171842 | 56 | 335 | 0.0 | 1.0 | 0.00 | 0.00 | 0.00 | 72 | 1020.9 |
| 20260507171320 | 55 | 12 | 0.0 | 0.0 | 0.00 | 0.00 | 0.00 | 74 | 1020.9 |
| 20260507170830 | 55 | 329 | 0.0 | 0.0 | 0.00 | 0.00 | 0.00 | 75 | 1020.9 |
| 20260507170329 | 53 | 15 | 0.0 | 6.0 | 0.00 | 0.00 | 0.00 | 77 | 1020.9 |
| 20260507165839 | 53 | 328 | 2.0 | 6.0 | 0.00 | 0.00 | 0.00 | 76 | 1021.0 |
| 20260507165318 | 53 | 321 | 0.0 | 3.0 | 0.00 | 0.00 | 0.00 | 77 | 1021.0 |
| 20260507164820 | 53 | 335 | 0.0 | 4.0 | 0.00 | 0.00 | 0.00 | 77 | 1021.0 |
| 20260507164320 | 52 | 308 | 1.0 | 4.0 | 0.00 | 0.00 | 0.00 | 78 | 1021.1 |
| 20260507163829 | 52 | 306 | 0.0 | 0.0 | 0.00 | 0.00 | 0.00 | 79 | 1021.0 |
| 20260507163329 | 52 | 47 | 0.0 | 3.0 | 0.00 | 0.00 | 0.00 | 79 | 1021.0 |
| 20260507162838 | 52 | 352 | 1.0 | 7.0 | 0.00 | 0.00 | 0.00 | 79 | 1021.0 |
| 20260507162318 | 51 | 347 | 2.0 | 7.0 | 0.00 | 0.00 | 0.00 | 79 | 1020.9 |
| 20260507161820 | 51 | 339 | 1.0 | 7.0 | 0.00 | 0.00 | 0.00 | 79 | 1021.0 |
| 20260507161327 | 51 | 340 | 2.0 | 7.0 | 0.00 | 0.00 | 0.00 | 78 | 1021.0 |
| 20260507160829 | 52 | 337 | 0.0 | 4.0 | 0.00 | 0.00 | 0.00 | 78 | 1021.0 |
| 20260507160328 | 52 | 1 | 0.0 | 4.0 | 0.00 | 0.00 | 0.00 | 79 | 1020.9 |
| 20260507155819 | 52 | 312 | 0.0 | 4.0 | 0.00 | 0.00 | 0.00 | 80 | 1020.9 |
| 20260507155317 | 51 | 352 | 0.0 | 0.0 | 0.00 | 0.00 | 0.00 | 81 | 1020.9 |
| 20260507154819 | 51 | 309 | 0.0 | 0.0 | 0.00 | 0.00 | 0.00 | 81 | 1021.0 |
| 20260507154325 | 51 | 330 | 0.0 | 0.0 | 0.00 | 0.00 | 0.00 | 82 | 1021.0 |
| 20260507153828 | 51 | 113 | 0.0 | 1.0 | 0.00 | 0.00 | 0.00 | 82 | 1021.0 |
| 20260507153334 | 51 | 37 | 0.0 | 0.0 | 0.00 | 0.00 | 0.00 | 83 | 1021.0 |
| 20260507152817 | 51 | 321 | 0.0 | 0.0 | 0.00 | 0.00 | 0.00 | 83 | 1021.0 |
| 20260507152316 | 51 | 61 | 0.0 | 1.0 | 0.00 | 0.00 | 0.00 | 84 | 1021.0 |
| 20260507151827 | 51 | 319 | 0.0 | 1.0 | 0.00 | 0.00 | 0.00 | 83 | 1021.0 |
| 20260507151325 | 51 | 352 | 0.0 | 0.0 | 0.00 | 0.00 | 0.00 | 83 | 1021.0 |
| 20260507150827 | 51 | 132 | 0.0 | 0.0 | 0.00 | 0.00 | 0.00 | 84 | 1021.0 |
| 20260507150333 | 51 | 81 | 0.0 | 0.0 | 0.00 | 0.00 | 0.00 | 83 | 1021.0 |
| 20260507145342 | 51 | 142 | 0.0 | 1.0 | 0.00 | 0.00 | 0.00 | 84 | 1021.0 |
| 20260507144825 | 51 | 134 | 0.0 | 0.0 | 0.00 | 0.00 | 0.00 | 84 | 1021.0 |
| 20260507144324 | 51 | 75 | 0.0 | 0.0 | 0.00 | 0.00 | 0.00 | 84 | 1021.0 |
| 20260507143826 | 51 | 86 | 0.0 | 0.0 | 0.00 | 0.00 | 0.00 | 84 | 1021.0 |
| 20260507143333 | 51 | 130 | 0.0 | 0.0 | 0.00 | 0.00 | 0.00 | 84 | 1020.9 |
| 20260507142835 | 51 | 131 | 0.0 | 0.0 | 0.00 | 0.00 | 0.00 | 84 | 1020.9 |
| 20260507142342 | 51 | 118 | 0.0 | 0.0 | 0.00 | 0.00 | 0.00 | 84 | 1020.9 |
| 20260507141824 | 51 | 148 | 0.0 | 0.0 | 0.00 | 0.00 | 0.00 | 85 | 1020.9 |
| 20260507141323 | 50 | 97 | 0.0 | 0.0 | 0.00 | 0.00 | 0.00 | 85 | 1020.8 |
| 20260507140832 | 50 | 97 | 0.0 | 0.0 | 0.00 | 0.00 | 0.00 | 85 | 1020.7 |
| 20260507140332 | 50 | 129 | 0.0 | 0.0 | 0.00 | 0.00 | 0.00 | 85 | 1020.8 |
| 20260507135835 | 50 | 129 | 0.0 | 0.0 | 0.00 | 0.00 | 0.00 | 85 | 1020.8 |
| 20260507135321 | 50 | 130 | 0.0 | 0.0 | 0.00 | 0.00 | 0.00 | 85 | 1020.7 |
| 20260507134831 | 50 | 133 | 0.0 | 0.0 | 0.00 | 0.00 | 0.00 | 84 | 1020.7 |
| 20260507134330 | 50 | 133 | 0.0 | 0.0 | 0.00 | 0.00 | 0.00 | 85 | 1020.6 |
| 20260507133819 | 50 | 133 | 0.0 | 0.0 | 0.00 | 0.00 | 0.00 | 85 | 1020.6 |
| 20260507133326 | 50 | 131 | 0.0 | 0.0 | 0.00 | 0.00 | 0.00 | 85 | 1020.6 |
| 20260507132336 | 50 | 89 | 0.0 | 0.0 | 0.00 | 0.00 | 0.00 | 85 | 1020.5 |
| 20260507131818 | 50 | 81 | 0.0 | 0.0 | 0.00 | 0.00 | 0.00 | 85 | 1020.5 |
| 20260507131324 | 50 | 139 | 0.0 | 0.0 | 0.00 | 0.00 | 0.00 | 86 | 1020.5 |
| 20260507130834 | 50 | 139 | 0.0 | 1.0 | 0.00 | 0.00 | 0.00 | 85 | 1020.5 |
| 20260507130333 | 50 | 118 | 0.0 | 1.0 | 0.00 | 0.00 | 0.00 | 85 | 1020.6 |
| 20260507125822 | 51 | 330 | 0.0 | 0.0 | 0.00 | 0.00 | 0.00 | 85 | 1020.6 |
| 20260507125321 | 51 | 330 | 0.0 | 0.0 | 0.00 | 0.00 | 0.00 | 85 | 1020.6 |
| 20260507124830 | 51 | 325 | 0.0 | 0.0 | 0.00 | 0.00 | 0.00 | 84 | 1020.6 |
| 20260507124329 | 51 | 325 | 0.0 | 0.0 | 0.00 | 0.00 | 0.00 | 83 | 1020.6 |
| 20260507123839 | 51 | 325 | 0.0 | 0.0 | 0.00 | 0.00 | 0.00 | 84 | 1020.6 |
| 20260507123318 | 51 | 325 | 0.0 | 0.0 | 0.00 | 0.00 | 0.00 | 83 | 1020.6 |
| 20260507122821 | 51 | 325 | 0.0 | 0.0 | 0.00 | 0.00 | 0.00 | 83 | 1020.6 |
| 20260507122320 | 51 | 325 | 0.0 | 0.0 | 0.00 | 0.00 | 0.00 | 83 | 1020.7 |
| 20260507121829 | 51 | 325 | 0.0 | 0.0 | 0.00 | 0.00 | 0.00 | 83 | 1020.7 |
| 20260507121328 | 51 | 333 | 0.0 | 0.0 | 0.00 | 0.00 | 0.00 | 83 | 1020.6 |
| 20260507120838 | 51 | 333 | 0.0 | 0.0 | 0.00 | 0.00 | 0.00 | 83 | 1020.7 |
| 20260507120317 | 51 | 333 | 0.0 | 0.0 | 0.00 | 0.00 | 0.00 | 83 | 1020.7 |
| 20260507115325 | 51 | 333 | 0.0 | 0.0 | 0.00 | 0.00 | 0.00 | 84 | 1020.8 |
| 20260507114828 | 51 | 333 | 0.0 | 0.0 | 0.00 | 0.00 | 0.00 | 84 | 1020.8 |
| 20260507114327 | 51 | 333 | 0.0 | 0.0 | 0.00 | 0.00 | 0.00 | 84 | 1020.8 |
| 20260507113837 | 51 | 333 | 0.0 | 0.0 | 0.00 | 0.00 | 0.00 | 83 | 1020.8 |
| 20260507113316 | 51 | 333 | 0.0 | 0.0 | 0.00 | 0.00 | 0.00 | 83 | 1020.8 |
| 20260507112818 | 51 | 333 | 0.0 | 0.0 | 0.00 | 0.00 | 0.00 | 84 | 1020.9 |
| 20260507112325 | 52 | 333 | 0.0 | 0.0 | 0.00 | 0.00 | 0.00 | 84 | 1020.9 |
| 20260507111815 | 52 | 333 | 0.0 | 0.0 | 0.00 | 0.00 | 0.00 | 83 | 1020.9 |
| 20260507111313 | 52 | 333 | 0.0 | 0.0 | 0.00 | 0.00 | 0.00 | 83 | 1020.9 |
| 20260507110823 | 52 | 333 | 0.0 | 0.0 | 0.00 | 0.00 | 0.00 | 83 | 1020.9 |
| 20260507110329 | 52 | 333 | 0.0 | 0.0 | 0.00 | 0.00 | 0.00 | 84 | 1020.9 |
| 20260507105838 | 52 | 333 | 0.0 | 0.0 | 0.00 | 0.00 | 0.00 | 83 | 1020.9 |
| 20260507105330 | 52 | 333 | 0.0 | 0.0 | 0.00 | 0.00 | 0.00 | 83 | 1021.0 |
| 20260507104819 | 52 | 333 | 0.0 | 0.0 | 0.00 | 0.00 | 0.00 | 83 | 1021.0 |
| 20260507104345 | 52 | 333 | 0.0 | 0.0 | 0.00 | 0.00 | 0.00 | 83 | 1021.0 |
| 20260507103847 | 52 | 327 | 0.0 | 0.0 | 0.00 | 0.00 | 0.00 | 84 | 1021.1 |
| 20260507103349 | 52 | 327 | 0.0 | 0.0 | 0.00 | 0.00 | 0.00 | 84 | 1021.1 |
| 20260507102838 | 52 | 356 | 0.0 | 0.0 | 0.00 | 0.00 | 0.00 | 83 | 1021.1 |
| 20260507102335 | 52 | 331 | 0.0 | 0.0 | 0.00 | 0.00 | 0.00 | 83 | 1021.1 |
| 20260507101841 | 52 | 324 | 0.0 | 0.0 | 0.00 | 0.00 | 0.00 | 83 | 1021.2 |
| 20260507101347 | 52 | 316 | 0.0 | 0.0 | 0.00 | 0.00 | 0.00 | 84 | 1021.2 |
| 20260507100853 | 52 | 316 | 0.0 | 0.0 | 0.00 | 0.00 | 0.00 | 84 | 1021.2 |
| 20260507100348 | 52 | 309 | 0.0 | 0.0 | 0.00 | 0.00 | 0.00 | 84 | 1021.2 |
| 20260507095315 | 52 | 342 | 0.0 | 0.0 | 0.00 | 0.00 | 0.00 | 83 | 1021.3 |
| 20260507094818 | 52 | 342 | 0.0 | 0.0 | 0.00 | 0.00 | 0.00 | 84 | 1021.3 |
| 20260507094323 | 52 | 342 | 0.0 | 0.0 | 0.00 | 0.00 | 0.00 | 84 | 1021.3 |
| 20260507093826 | 52 | 345 | 0.0 | 0.0 | 0.00 | 0.00 | 0.00 | 84 | 1021.3 |
| 20260507093331 | 52 | 345 | 0.0 | 0.0 | 0.00 | 0.00 | 0.00 | 85 | 1021.4 |
| 20260507092814 | 52 | 297 | 0.0 | 0.0 | 0.00 | 0.00 | 0.00 | 85 | 1021.5 |
| 20260507092313 | 52 | 332 | 0.0 | 0.0 | 0.00 | 0.00 | 0.00 | 86 | 1021.5 |
| 20260507091816 | 52 | 327 | 0.0 | 0.0 | 0.00 | 0.00 | 0.00 | 86 | 1021.6 |
| 20260507091322 | 52 | 327 | 0.0 | 0.0 | 0.00 | 0.00 | 0.00 | 86 | 1021.7 |
| 20260507090824 | 52 | 318 | 0.0 | 0.0 | 0.00 | 0.00 | 0.00 | 86 | 1021.7 |
| 20260507090331 | 52 | 311 | 0.0 | 0.0 | 0.00 | 0.00 | 0.00 | 86 | 1021.7 |
| 20260507085813 | 52 | 311 | 0.0 | 0.0 | 0.00 | 0.00 | 0.00 | 86 | 1021.7 |
| 20260507085313 | 52 | 311 | 0.0 | 0.0 | 0.00 | 0.00 | 0.00 | 86 | 1021.6 |
| 20260507084322 | 53 | 326 | 0.0 | 0.0 | 0.00 | 0.00 | 0.00 | 86 | 1021.6 |
| 20260507083824 | 53 | 326 | 0.0 | 0.0 | 0.00 | 0.00 | 0.00 | 86 | 1021.6 |
| 20260507083314 | 53 | 326 | 0.0 | 0.0 | 0.00 | 0.00 | 0.00 | 86 | 1021.6 |
| 20260507082817 | 53 | 326 | 0.0 | 0.0 | 0.00 | 0.00 | 0.00 | 86 | 1021.6 |
| 20260507082316 | 53 | 326 | 0.0 | 0.0 | 0.00 | 0.00 | 0.00 | 86 | 1021.7 |
| 20260507081826 | 53 | 313 | 0.0 | 0.0 | 0.00 | 0.00 | 0.00 | 86 | 1021.6 |
| 20260507081324 | 53 | 313 | 0.0 | 0.0 | 0.00 | 0.00 | 0.00 | 86 | 1021.6 |
| 20260507080328 | 53 | 15 | 0.0 | 0.0 | 0.00 | 0.00 | 0.00 | 85 | 1021.6 |
| 20260507075824 | 53 | 340 | 0.0 | 0.0 | 0.00 | 0.00 | 0.00 | 85 | 1021.6 |
| 20260507075325 | 53 | 327 | 0.0 | 0.0 | 0.00 | 0.00 | 0.00 | 85 | 1021.6 |
| 20260507074814 | 53 | 308 | 0.0 | 0.0 | 0.00 | 0.00 | 0.00 | 85 | 1021.6 |
| 20260507074313 | 53 | 309 | 0.0 | 2.0 | 0.00 | 0.00 | 0.00 | 85 | 1021.6 |
| 20260507073816 | 53 | 1 | 0.0 | 2.0 | 0.00 | 0.00 | 0.00 | 84 | 1021.6 |
| 20260507073322 | 53 | 314 | 0.0 | 1.0 | 0.00 | 0.00 | 0.00 | 84 | 1021.6 |
| 20260507072824 | 53 | 356 | 0.0 | 0.0 | 0.00 | 0.00 | 0.00 | 84 | 1021.6 |
| 20260507072331 | 53 | 315 | 0.0 | 4.0 | 0.00 | 0.00 | 0.00 | 83 | 1021.6 |
| 20260507071813 | 53 | 331 | 0.0 | 4.0 | 0.00 | 0.00 | 0.00 | 83 | 1021.6 |
| 20260507071313 | 53 | 326 | 0.0 | 3.0 | 0.00 | 0.00 | 0.00 | 84 | 1021.5 |
| 20260507070822 | 53 | 340 | 1.0 | 3.0 | 0.00 | 0.00 | 0.00 | 84 | 1021.5 |
| 20260507070320 | 53 | 340 | 0.0 | 0.0 | 0.00 | 0.00 | 0.00 | 84 | 1021.4 |
| 20260507065823 | 53 | 323 | 0.0 | 0.0 | 0.00 | 0.00 | 0.00 | 85 | 1021.4 |
| 20260507065329 | 53 | 323 | 0.0 | 0.0 | 0.00 | 0.00 | 0.00 | 85 | 1021.5 |
| 20260507064831 | 53 | 323 | 0.0 | 0.0 | 0.00 | 0.00 | 0.00 | 85 | 1021.5 |
| 20260507064338 | 53 | 354 | 0.0 | 4.0 | 0.00 | 0.00 | 0.00 | 85 | 1021.4 |
| 20260507063820 | 53 | 344 | 1.0 | 6.0 | 0.00 | 0.00 | 0.00 | 85 | 1021.5 |
| 20260507063320 | 53 | 355 | 1.0 | 6.0 | 0.00 | 0.00 | 0.00 | 85 | 1021.5 |
| 20260507062831 | 53 | 342 | 1.0 | 5.0 | 0.00 | 0.00 | 0.00 | 85 | 1021.5 |
| 20260507062329 | 53 | 322 | 2.0 | 7.0 | 0.00 | 0.00 | 0.00 | 86 | 1021.5 |
| 20260507061832 | 53 | 325 | 3.0 | 7.0 | 0.00 | 0.00 | 0.00 | 86 | 1021.6 |
| 20260507061338 | 53 | 351 | 0.0 | 3.0 | 0.00 | 0.00 | 0.00 | 87 | 1021.6 |
| 20260507060820 | 53 | 332 | 1.0 | 5.0 | 0.00 | 0.00 | 0.00 | 87 | 1021.6 |
| 20260507060320 | 53 | 356 | 0.0 | 5.0 | 0.00 | 0.00 | 0.00 | 87 | 1021.5 |
| 20260507055823 | 53 | 333 | 0.0 | 4.0 | 0.00 | 0.00 | 0.00 | 87 | 1021.5 |
| 20260507055322 | 53 | 354 | 0.0 | 3.0 | 0.00 | 0.00 | 0.00 | 87 | 1021.6 |
| 20260507054832 | 53 | 314 | 0.0 | 0.0 | 0.00 | 0.00 | 0.00 | 87 | 1021.5 |
| 20260507054331 | 53 | 321 | 0.0 | 3.0 | 0.00 | 0.00 | 0.00 | 87 | 1021.4 |
| 20260507053814 | 53 | 30 | 0.0 | 5.0 | 0.00 | 0.00 | 0.00 | 87 | 1021.5 |
| 20260507053313 | 53 | 355 | 1.0 | 5.0 | 0.00 | 0.00 | 0.00 | 87 | 1021.5 |
| 20260507052823 | 53 | 342 | 0.0 | 3.0 | 0.00 | 0.00 | 0.00 | 87 | 1021.5 |
| 20260507052322 | 54 | 312 | 1.0 | 3.0 | 0.00 | 0.00 | 0.00 | 87 | 1021.4 |
| 20260507051831 | 54 | 334 | 0.0 | 4.0 | 0.00 | 0.00 | 0.00 | 86 | 1021.4 |
| 20260507050821 | 54 | 330 | 1.0 | 5.0 | 0.00 | 0.00 | 0.00 | 86 | 1021.4 |
| 20260507050320 | 54 | 39 | 0.0 | 4.0 | 0.00 | 0.00 | 0.00 | 85 | 1021.5 |
| 20260507045830 | 54 | 336 | 1.0 | 4.0 | 0.00 | 0.00 | 0.00 | 85 | 1021.5 |
| 20260507045357 | 54 | 267 | 0.0 | 1.0 | 0.00 | 0.00 | 0.00 | 85 | 1021.5 |
| 20260507045000 | 55 | 298 | 0.0 | 6.0 | 0.00 | 0.00 | 0.00 | 85 | 1021.5 |
| 20260507044333 | 55 | 334 | 1.0 | 6.0 | 0.00 | 0.00 | 0.00 | 85 | 1021.5 |
| 20260507043842 | 55 | 329 | 1.0 | 8.0 | 0.00 | 0.00 | 0.00 | 85 | 1021.5 |
| 20260507043342 | 55 | 304 | 2.0 | 8.0 | 0.00 | 0.00 | 0.00 | 84 | 1021.4 |
| 20260507042852 | 55 | 329 | 2.0 | 7.0 | 0.00 | 0.00 | 0.00 | 84 | 1021.4 |
| 20260507042338 | 55 | 14 | 1.0 | 7.0 | 0.00 | 0.00 | 0.00 | 84 | 1021.3 |
| 20260507041840 | 55 | 336 | 3.0 | 7.0 | 0.00 | 0.00 | 0.00 | 84 | 1021.4 |
| 20260507041347 | 55 | 332 | 1.0 | 5.0 | 0.00 | 0.00 | 0.00 | 84 | 1021.3 |
| 20260507040836 | 56 | 338 | 0.0 | 5.0 | 0.00 | 0.00 | 0.00 | 84 | 1021.2 |
| 20260507040335 | 56 | 31 | 1.0 | 11.0 | 0.00 | 0.00 | 0.00 | 84 | 1021.2 |
| 20260507035840 | 56 | 32 | 1.0 | 11.0 | 0.00 | 0.00 | 0.00 | 83 | 1021.1 |
| 20260507035346 | 56 | 18 | 2.0 | 6.0 | 0.00 | 0.00 | 0.00 | 83 | 1021.0 |
| 20260507034856 | 56 | 313 | 0.0 | 6.0 | 0.00 | 0.00 | 0.00 | 83 | 1021.0 |
| 20260507034335 | 56 | 37 | 0.0 | 10.0 | 0.00 | 0.00 | 0.00 | 83 | 1020.9 |
| 20260507033845 | 57 | 332 | 1.0 | 10.0 | 0.00 | 0.00 | 0.00 | 83 | 1020.9 |
| 20260507033351 | 57 | 350 | 0.0 | 6.0 | 0.00 | 0.00 | 0.00 | 83 | 1020.8 |
| 20260507032813 | 57 | 321 | 0.0 | 6.0 | 0.00 | 0.00 | 0.00 | 83 | 1020.8 |
| 20260507032312 | 57 | 310 | 0.0 | 8.0 | 0.00 | 0.00 | 0.00 | 83 | 1020.7 |
| 20260507031822 | 57 | 310 | 0.0 | 8.0 | 0.00 | 0.00 | 0.00 | 83 | 1020.6 |
| 20260507031321 | 57 | 318 | 1.0 | 7.0 | 0.00 | 0.00 | 0.00 | 82 | 1020.6 |
| 20260507030830 | 58 | 349 | 0.0 | 7.0 | 0.00 | 0.00 | 0.00 | 82 | 1020.5 |
| 20260507030337 | 58 | 354 | 0.0 | 3.0 | 0.00 | 0.00 | 0.00 | 82 | 1020.4 |
| 20260507025820 | 58 | 333 | 0.0 | 5.0 | 0.00 | 0.00 | 0.00 | 81 | 1020.4 |
| 20260507025327 | 58 | 18 | 2.0 | 5.0 | 0.00 | 0.00 | 0.00 | 81 | 1020.4 |
| 20260507024836 | 59 | 337 | 0.0 | 6.0 | 0.00 | 0.00 | 0.00 | 81 | 1020.4 |
| 20260507024315 | 59 | 323 | 3.0 | 6.0 | 0.00 | 0.00 | 0.00 | 80 | 1020.3 |
| 20260507023818 | 59 | 341 | 0.0 | 2.0 | 0.00 | 0.00 | 0.00 | 80 | 1020.2 |
| 20260507023324 | 59 | 56 | 0.0 | 0.0 | 0.00 | 0.00 | 0.00 | 80 | 1020.2 |
| 20260507022827 | 59 | 131 | 0.0 | 0.0 | 0.00 | 0.00 | 0.00 | 80 | 1020.1 |
| 20260507022327 | 60 | 321 | 0.0 | 1.0 | 0.00 | 0.00 | 0.00 | 79 | 1020.2 |
| 20260507021837 | 60 | 111 | 0.0 | 1.0 | 0.00 | 0.00 | 0.00 | 79 | 1020.2 |
| 20260507021316 | 60 | 113 | 0.0 | 0.0 | 0.00 | 0.00 | 0.00 | 77 | 1020.1 |
| 20260507020825 | 61 | 347 | 0.0 | 1.0 | 0.00 | 0.00 | 0.00 | 77 | 1020.1 |
| 20260507020324 | 61 | 353 | 0.0 | 1.0 | 0.00 | 0.00 | 0.00 | 77 | 1020.1 |
| 20260507015813 | 61 | 70 | 0.0 | 2.0 | 0.00 | 0.00 | 0.00 | 76 | 1020.2 |
| 20260507015318 | 61 | 60 | 0.0 | 2.0 | 0.00 | 0.00 | 0.00 | 76 | 1020.2 |
| 20260507014820 | 62 | 336 | 0.0 | 2.0 | 0.00 | 0.00 | 0.00 | 75 | 1020.3 |
| 20260507014326 | 62 | 46 | 0.0 | 3.0 | 0.00 | 0.00 | 0.00 | 75 | 1020.3 |
| 20260507013815 | 62 | 288 | 0.0 | 3.0 | 0.00 | 0.00 | 0.00 | 75 | 1020.4 |
| 20260507013313 | 62 | 32 | 0.0 | 11.0 | 0.00 | 0.00 | 0.00 | 75 | 1020.4 |
| 20260507012843 | 63 | 341 | 1.0 | 11.0 | 0.00 | 0.00 | 0.00 | 74 | 1020.3 |
| 20260507012328 | 63 | 44 | 1.0 | 8.0 | 0.00 | 0.00 | 0.00 | 73 | 1020.3 |
| 20260507011316 | 64 | 44 | 0.0 | 6.0 | 0.00 | 0.00 | 0.00 | 74 | 1020.2 |
| 20260507010818 | 64 | 32 | 1.0 | 6.0 | 0.00 | 0.00 | 0.00 | 73 | 1020.2 |
| 20260507010325 | 64 | 50 | 0.0 | 5.0 | 0.00 | 0.00 | 0.00 | 74 | 1020.2 |
| 20260507005827 | 64 | 353 | 0.0 | 5.0 | 0.00 | 0.00 | 0.00 | 74 | 1020.2 |
| 20260507005313 | 64 | 113 | 0.0 | 5.0 | 0.00 | 0.00 | 0.00 | 74 | 1020.2 |
| 20260507004823 | 64 | 74 | 0.0 | 8.0 | 0.00 | 0.00 | 0.00 | 75 | 1020.2 |
| 20260507004350 | 64 | 6 | 0.0 | 8.0 | 0.00 | 0.00 | 0.00 | 75 | 1020.2 |
| 20260507003852 | 64 | 342 | 3.0 | 6.0 | 0.00 | 0.00 | 0.00 | 74 | 1020.1 |
| 20260507003338 | 64 | 316 | 1.0 | 6.0 | 0.00 | 0.00 | 0.00 | 74 | 1020.1 |
| 20260507002846 | 65 | 342 | 0.0 | 5.0 | 0.00 | 0.00 | 0.00 | 74 | 1020.1 |
| 20260507002344 | 65 | 127 | 0.0 | 5.0 | 0.00 | 0.00 | 0.00 | 74 | 1020.1 |
| 20260507001853 | 65 | 39 | 0.0 | 4.0 | 0.00 | 0.00 | 0.00 | 74 | 1020.0 |
| 20260507001339 | 66 | 40 | 0.0 | 3.0 | 0.00 | 0.00 | 0.00 | 73 | 1020.1 |
| 20260507000840 | 66 | 346 | 1.0 | 3.0 | 0.00 | 0.00 | 0.00 | 72 | 1020.1 |
| 20260507000352 | 66 | 1 | 0.0 | 0.0 | 0.00 | 0.00 | 0.00 | 72 | 1020.1 |
| 20260506235813 | 66 | 39 | 0.0 | 0.0 | 0.00 | 0.00 | 0.00 | 72 | 1020.1 |
| 20260506235320 | 66 | 37 | 0.0 | 0.0 | 0.00 | 0.00 | 0.00 | 73 | 1020.1 |
| 20260506234822 | 66 | 52 | 0.0 | 0.0 | 0.00 | 0.00 | 0.00 | 73 | 1020.1 |
| 20260506234321 | 66 | 337 | 0.0 | 0.0 | 0.00 | 0.00 | 0.00 | 73 | 1020.1 |
| 20260506233858 | 65 | 114 | 0.0 | 0.0 | 0.00 | 0.00 | 0.00 | 73 | 1020.1 |
| 20260506233319 | 65 | 50 | 0.0 | 0.0 | 0.00 | 0.00 | 0.00 | 72 | 1020.1 |
| 20260506232822 | 65 | 47 | 0.0 | 5.0 | 0.00 | 0.00 | 0.00 | 72 | 1020.1 |
| 20260506232321 | 65 | 144 | 1.0 | 5.0 | 0.00 | 0.00 | 0.00 | 73 | 1020.1 |
| 20260506231830 | 66 | 142 | 1.0 | 4.0 | 0.00 | 0.00 | 0.00 | 72 | 1020.1 |
| 20260506231330 | 66 | 60 | 0.0 | 7.0 | 0.00 | 0.00 | 0.00 | 71 | 1020.1 |
| 20260506230839 | 66 | 128 | 0.0 | 3.0 | 0.00 | 0.00 | 0.00 | 71 | 1020.2 |
| 20260506230317 | 66 | 140 | 0.0 | 0.0 | 0.00 | 0.00 | 0.00 | 71 | 1020.3 |
| 20260506225820 | 66 | 34 | 0.0 | 1.0 | 0.00 | 0.00 | 0.00 | 70 | 1020.4 |
| 20260506225326 | 66 | 328 | 0.0 | 1.0 | 0.00 | 0.00 | 0.00 | 69 | 1020.4 |
| 20260506224829 | 66 | 126 | 0.0 | 4.0 | 0.00 | 0.00 | 0.00 | 72 | 1020.5 |
| 20260506224328 | 66 | 193 | 1.0 | 4.0 | 0.00 | 0.00 | 0.00 | 71 | 1020.5 |
| 20260506223838 | 66 | 93 | 1.0 | 2.0 | 0.00 | 0.00 | 0.00 | 70 | 1020.5 |
| 20260506223317 | 66 | 172 | 0.0 | 0.0 | 0.00 | 0.00 | 0.00 | 71 | 1020.6 |
| 20260506222819 | 67 | 43 | 0.0 | 4.0 | 0.00 | 0.00 | 0.00 | 70 | 1020.6 |
| 20260506222333 | 67 | 207 | 1.0 | 5.0 | 0.00 | 0.00 | 0.00 | 70 | 1020.6 |
| 20260506221815 | 67 | 230 | 0.0 | 3.0 | 0.00 | 0.00 | 0.00 | 71 | 1020.6 |
| 20260506221315 | 67 | 135 | 0.0 | 0.0 | 0.00 | 0.00 | 0.00 | 70 | 1020.7 |
| 20260506220824 | 66 | 6 | 0.0 | 3.0 | 0.00 | 0.00 | 0.00 | 71 | 1020.8 |
| 20260506220330 | 66 | 356 | 0.0 | 3.0 | 0.00 | 0.00 | 0.00 | 68 | 1020.8 |
| 20260506215813 | 67 | 248 | 0.0 | 3.0 | 0.00 | 0.00 | 0.00 | 68 | 1020.7 |
| 20260506215321 | 67 | 318 | 0.0 | 3.0 | 0.00 | 0.00 | 0.00 | 69 | 1020.7 |
| 20260506214823 | 67 | 179 | 0.0 | 4.0 | 0.00 | 0.00 | 0.00 | 68 | 1020.6 |
| 20260506214322 | 66 | 269 | 0.0 | 5.0 | 0.00 | 0.00 | 0.00 | 69 | 1020.6 |
| 20260506213831 | 67 | 316 | 0.0 | 4.0 | 0.00 | 0.00 | 0.00 | 68 | 1020.6 |
| 20260506213331 | 67 | 148 | 0.0 | 4.0 | 0.00 | 0.00 | 0.00 | 69 | 1020.6 |
| 20260506212813 | 67 | 213 | 0.0 | 0.0 | 0.00 | 0.00 | 0.00 | 70 | 1020.8 |
| 20260506212319 | 66 | 210 | 0.0 | 4.0 | 0.00 | 0.00 | 0.00 | 71 | 1020.8 |
| 20260506211822 | 66 | 243 | 0.0 | 5.0 | 0.00 | 0.00 | 0.00 | 72 | 1020.9 |
| 20260506211321 | 66 | 129 | 1.0 | 5.0 | 0.00 | 0.00 | 0.00 | 71 | 1020.9 |
| 20260506210831 | 66 | 181 | 0.0 | 0.0 | 0.00 | 0.00 | 0.00 | 72 | 1021.0 |
| 20260506210328 | 65 | 131 | 0.0 | 3.0 | 0.00 | 0.00 | 0.00 | 75 | 1021.0 |
| 20260506205837 | 64 | 101 | 1.0 | 3.0 | 0.00 | 0.00 | 0.00 | 74 | 1021.1 |
| 20260506205317 | 64 | 60 | 0.0 | 0.0 | 0.00 | 0.00 | 0.00 | 76 | 1021.0 |
| 20260506204819 | 63 | 109 | 0.0 | 4.0 | 0.00 | 0.00 | 0.00 | 76 | 1021.0 |
| 20260506204325 | 64 | 240 | 1.0 | 5.0 | 0.00 | 0.00 | 0.00 | 76 | 1021.1 |
| 20260506203828 | 63 | 209 | 1.0 | 5.0 | 0.00 | 0.00 | 0.00 | 76 | 1021.0 |
| 20260506203327 | 64 | 156 | 1.0 | 5.0 | 0.00 | 0.00 | 0.00 | 77 | 1021.0 |
| 20260506202817 | 63 | 136 | 0.0 | 0.0 | 0.00 | 0.00 | 0.00 | 79 | 1021.0 |
| 20260506202316 | 63 | 145 | 0.0 | 5.0 | 0.00 | 0.00 | 0.00 | 78 | 1020.9 |
| 20260506201818 | 63 | 205 | 1.0 | 5.0 | 0.00 | 0.00 | 0.00 | 77 | 1020.9 |
| 20260506201325 | 62 | 206 | 0.0 | 3.0 | 0.00 | 0.00 | 0.00 | 78 | 1021.0 |
| 20260506200827 | 62 | 138 | 0.0 | 3.0 | 0.00 | 0.00 | 0.00 | 79 | 1021.0 |
| 20260506200334 | 62 | 46 | 0.0 | 2.0 | 0.00 | 0.00 | 0.00 | 79 | 1021.0 |
| 20260506195816 | 62 | 8 | 0.0 | 0.0 | 0.00 | 0.00 | 0.00 | 79 | 1021.1 |
| 20260506195315 | 62 | 105 | 0.0 | 2.0 | 0.00 | 0.00 | 0.00 | 80 | 1021.3 |
| 20260506194825 | 61 | 77 | 0.0 | 2.0 | 0.00 | 0.00 | 0.00 | 80 | 1021.3 |
| 20260506194324 | 61 | 180 | 0.0 | 0.0 | 0.00 | 0.00 | 0.00 | 80 | 1021.4 |
| 20260506193854 | 62 | 352 | 0.0 | 0.0 | 0.00 | 0.00 | 0.00 | 79 | 1021.4 |
| 20260506193334 | 61 | 113 | 0.0 | 0.0 | 0.00 | 0.00 | 0.00 | 81 | 1021.3 |
| 20260506192842 | 61 | 166 | 0.0 | 3.0 | 0.00 | 0.00 | 0.00 | 81 | 1021.4 |
| 20260506192348 | 61 | 152 | 1.0 | 3.0 | 0.00 | 0.00 | 0.00 | 79 | 1021.4 |
| 20260506191849 | 62 | 358 | 0.0 | 5.0 | 0.00 | 0.00 | 0.00 | 78 | 1021.3 |
| 20260506191335 | 61 | 116 | 1.0 | 5.0 | 0.00 | 0.00 | 0.00 | 79 | 1021.2 |
| 20260506190843 | 61 | 4 | 0.0 | 2.0 | 0.00 | 0.00 | 0.00 | 79 | 1021.2 |
| 20260506190341 | 60 | 344 | 0.0 | 1.0 | 0.00 | 0.00 | 0.00 | 81 | 1021.2 |
| 20260506185830 | 60 | 132 | 0.0 | 1.0 | 0.00 | 0.00 | 0.00 | 81 | 1021.3 |
| 20260506185329 | 61 | 308 | 0.0 | 3.0 | 0.00 | 0.00 | 0.00 | 80 | 1021.3 |
| 20260506184839 | 61 | 293 | 0.0 | 3.0 | 0.00 | 0.00 | 0.00 | 81 | 1021.2 |
| 20260506184318 | 60 | 302 | 0.0 | 3.0 | 0.00 | 0.00 | 0.00 | 81 | 1021.1 |
| 20260506183820 | 60 | 156 | 0.0 | 3.0 | 0.00 | 0.00 | 0.00 | 81 | 1021.2 |
| 20260506183326 | 60 | 332 | 0.0 | 3.0 | 0.00 | 0.00 | 0.00 | 81 | 1021.1 |
| 20260506182829 | 60 | 319 | 0.0 | 0.0 | 0.00 | 0.00 | 0.00 | 82 | 1021.1 |
| 20260506182328 | 60 | 314 | 0.0 | 0.0 | 0.00 | 0.00 | 0.00 | 83 | 1021.2 |
| 20260506181838 | 59 | 354 | 0.0 | 1.0 | 0.00 | 0.00 | 0.00 | 83 | 1021.2 |
| 20260506181318 | 59 | 44 | 0.0 | 2.0 | 0.00 | 0.00 | 0.00 | 84 | 1021.2 |
| 20260506180820 | 58 | 255 | 0.0 | 3.0 | 0.00 | 0.00 | 0.00 | 84 | 1021.2 |
| 20260506180326 | 58 | 289 | 0.0 | 3.0 | 0.00 | 0.00 | 0.00 | 86 | 1021.2 |
| 20260506175828 | 58 | 301 | 0.0 | 0.0 | 0.00 | 0.00 | 0.00 | 86 | 1021.2 |
| 20260506175335 | 58 | 297 | 0.0 | 2.0 | 0.00 | 0.00 | 0.00 | 86 | 1021.2 |